| time (UTC) | temp F | wind direction | speed MPH | gust MPH | rain 1hr in | rain 24hr in | rain mn in | humidity % | barometer mb |
| 20260507210031 | 68 | 259 | 14.0 | 24.0 | 0.00 | 0.12 | 0.08 | 37 | 1016.6 |
| 20260507204607 | 68 | 260 | 15.0 | 25.0 | 0.00 | 0.12 | 0.08 | 37 | 1016.7 |
| 20260507203032 | 67 | 260 | 15.0 | 28.0 | 0.00 | 0.12 | 0.08 | 39 | 1016.8 |
| 20260507201532 | 67 | 261 | 15.0 | 24.0 | 0.00 | 0.12 | 0.08 | 38 | 1017.1 |
| 20260507194529 | 66 | 258 | 15.0 | 26.0 | 0.00 | 0.12 | 0.08 | 38 | 1017.5 |
| 20260507193107 | 65 | 254 | 14.0 | 23.0 | 0.00 | 0.12 | 0.08 | 40 | 1017.7 |
| 20260507191530 | 65 | 256 | 13.0 | 24.0 | 0.00 | 0.12 | 0.08 | 40 | 1017.8 |
| 20260507190029 | 64 | 261 | 12.0 | 20.0 | 0.00 | 0.12 | 0.08 | 42 | 1018.0 |
| 20260507184533 | 63 | 261 | 13.0 | 23.0 | 0.00 | 0.12 | 0.08 | 43 | 1018.1 |
| 20260507183041 | 63 | 255 | 13.0 | 23.0 | 0.00 | 0.14 | 0.08 | 45 | 1018.3 |
| 20260507181532 | 62 | 254 | 14.0 | 24.0 | 0.00 | 0.14 | 0.08 | 46 | 1018.2 |
| 20260507180030 | 61 | 259 | 13.0 | 25.0 | 0.00 | 0.14 | 0.08 | 50 | 1018.4 |
| 20260507174606 | 61 | 266 | 12.0 | 24.0 | 0.00 | 0.14 | 0.08 | 52 | 1018.5 |
| 20260507173029 | 60 | 255 | 14.0 | 24.0 | 0.00 | 0.14 | 0.08 | 53 | 1018.6 |
| 20260507170031 | 58 | 255 | 11.0 | 19.0 | 0.00 | 0.14 | 0.08 | 59 | 1018.9 |
| 20260507163137 | 57 | 255 | 14.0 | 25.0 | 0.00 | 0.14 | 0.08 | 62 | 1018.9 |
| 20260507163128 | 56 | 256 | 14.0 | 26.0 | 0.00 | 0.14 | 0.08 | 64 | 1019.1 |
| 20260507153032 | 55 | 240 | 12.0 | 24.0 | 0.00 | 0.14 | 0.08 | 69 | 1019.7 |
| 20260507151531 | 54 | 243 | 10.0 | 20.0 | 0.00 | 0.14 | 0.08 | 71 | 1019.7 |
| 20260507150038 | 54 | 232 | 7.0 | 14.0 | 0.00 | 0.14 | 0.08 | 73 | 1019.8 |
| 20260507144647 | 53 | 232 | 5.0 | 13.0 | 0.00 | 0.14 | 0.08 | 75 | 1019.8 |
| 20260507143030 | 52 | 237 | 5.0 | 14.0 | 0.00 | 0.14 | 0.08 | 76 | 1019.7 |
| 20260507141530 | 52 | 261 | 11.0 | 35.0 | 0.00 | 0.14 | 0.08 | 76 | 1019.7 |
| 20260507140031 | 52 | 252 | 11.0 | 23.0 | 0.00 | 0.14 | 0.08 | 77 | 1019.4 |
| 20260507133029 | 52 | 245 | 14.0 | 24.0 | 0.00 | 0.14 | 0.08 | 79 | 1019.0 |
| 20260507131530 | 52 | 236 | 12.0 | 25.0 | 0.00 | 0.14 | 0.08 | 79 | 1018.9 |
| 20260507130030 | 52 | 229 | 10.0 | 23.0 | 0.00 | 0.14 | 0.08 | 78 | 1018.9 |
| 20260507124530 | 53 | 233 | 11.0 | 19.0 | 0.00 | 0.14 | 0.08 | 77 | 1018.9 |
| 20260507123030 | 53 | 243 | 14.0 | 36.0 | 0.00 | 0.14 | 0.08 | 76 | 1018.7 |
| 20260507121607 | 53 | 242 | 14.0 | 25.0 | 0.00 | 0.14 | 0.08 | 76 | 1018.6 |
| 20260507114536 | 54 | 244 | 15.0 | 25.0 | 0.00 | 0.14 | 0.08 | 76 | 1018.5 |
| 20260507111531 | 54 | 243 | 13.0 | 30.0 | 0.00 | 0.14 | 0.08 | 76 | 1018.5 |
| 20260507110105 | 54 | 244 | 11.0 | 34.0 | 0.00 | 0.14 | 0.08 | 76 | 1018.4 |
| 20260507104530 | 55 | 236 | 12.0 | 23.0 | 0.00 | 0.14 | 0.08 | 76 | 1018.2 |
| 20260507103033 | 55 | 238 | 13.0 | 30.0 | 0.00 | 0.14 | 0.08 | 76 | 1018.1 |
| 20260507101531 | 55 | 238 | 15.0 | 31.0 | 0.00 | 0.14 | 0.08 | 76 | 1018.1 |
| 20260507100043 | 55 | 242 | 15.0 | 35.0 | 0.00 | 0.14 | 0.08 | 75 | 1018.0 |
| 20260507094530 | 56 | 244 | 16.0 | 32.0 | 0.00 | 0.14 | 0.08 | 74 | 1017.9 |
| 20260507093034 | 57 | 245 | 16.0 | 31.0 | 0.00 | 0.14 | 0.08 | 74 | 1018.0 |
| 20260507091531 | 57 | 247 | 15.0 | 27.0 | 0.00 | 0.14 | 0.08 | 74 | 1018.1 |
| 20260507090033 | 57 | 247 | 15.0 | 29.0 | 0.00 | 0.14 | 0.08 | 74 | 1018.3 |
| 20260507084530 | 57 | 250 | 14.0 | 28.0 | 0.00 | 0.14 | 0.08 | 75 | 1018.2 |
| 20260507083106 | 57 | 252 | 15.0 | 35.0 | 0.00 | 0.14 | 0.08 | 75 | 1018.0 |
| 20260507081536 | 57 | 252 | 20.0 | 45.0 | 0.02 | 0.14 | 0.08 | 74 | 1017.7 |
| 20260507080030 | 58 | 245 | 18.0 | 57.0 | 0.08 | 0.14 | 0.08 | 73 | 1017.5 |
| 20260507074529 | 58 | 245 | 19.0 | 31.0 | 0.08 | 0.14 | 0.08 | 73 | 1017.2 |
| 20260507073106 | 59 | 247 | 25.0 | 48.0 | 0.08 | 0.14 | 0.06 | 72 | 1017.0 |
| 20260507071532 | 59 | 244 | 28.0 | 53.0 | 0.06 | 0.12 | 0.00 | 72 | 1017.0 |
| 20260507070030 | 59 | 243 | 25.0 | 42.0 | 0.00 | 0.06 | 0.00 | 72 | 1017.2 |
| 20260507064607 | 59 | 245 | 24.0 | 44.0 | 0.00 | 0.06 | 0.06 | 73 | 1017.2 |
| 20260507063030 | 60 | 243 | 23.0 | 40.0 | 0.00 | 0.06 | 0.06 | 72 | 1017.4 |
| 20260507060032 | 61 | 245 | 23.0 | 39.0 | 0.00 | 0.06 | 0.06 | 69 | 1017.3 |
| 20260507054531 | 61 | 243 | 24.0 | 37.0 | 0.00 | 0.06 | 0.06 | 69 | 1017.2 |
| 20260507053030 | 61 | 245 | 20.0 | 37.0 | 0.00 | 0.06 | 0.06 | 69 | 1017.4 |
| 20260507051529 | 61 | 242 | 20.0 | 37.0 | 0.00 | 0.06 | 0.06 | 69 | 1017.5 |
| 20260507050031 | 62 | 240 | 20.0 | 36.0 | 0.00 | 0.06 | 0.06 | 69 | 1017.8 |
| 20260507044530 | 62 | 234 | 20.0 | 36.0 | 0.00 | 0.06 | 0.06 | 69 | 1018.1 |
| 20260507043030 | 62 | 236 | 20.0 | 32.0 | 0.00 | 0.06 | 0.06 | 68 | 1018.3 |
| 20260507041531 | 62 | 244 | 17.0 | 36.0 | 0.00 | 0.06 | 0.06 | 67 | 1018.3 |
| 20260507040040 | 62 | 246 | 16.0 | 24.0 | 0.00 | 0.06 | 0.06 | 66 | 1018.3 |
| 20260507034533 | 63 | 253 | 16.0 | 38.0 | 0.00 | 0.06 | 0.06 | 64 | 1018.3 |
| 20260507033029 | 63 | 255 | 13.0 | 24.0 | 0.00 | 0.06 | 0.06 | 60 | 1018.3 |
| 20260507031530 | 64 | 258 | 14.0 | 22.0 | 0.00 | 0.06 | 0.06 | 57 | 1018.2 |
| 20260507030034 | 65 | 259 | 14.0 | 24.0 | 0.00 | 0.06 | 0.06 | 55 | 1018.2 |
| 20260507024530 | 66 | 261 | 13.0 | 22.0 | 0.00 | 0.06 | 0.06 | 54 | 1018.2 |
| 20260507023146 | 67 | 262 | 11.0 | 22.0 | 0.00 | 0.06 | 0.06 | 53 | 1018.3 |
| 20260507020030 | 67 | 271 | 13.0 | 21.0 | 0.00 | 0.06 | 0.06 | 55 | 1018.0 |
| 20260507014528 | 66 | 258 | 12.0 | 20.0 | 0.00 | 0.06 | 0.06 | 55 | 1017.9 |
| 20260507013031 | 66 | 256 | 14.0 | 21.0 | 0.00 | 0.06 | 0.06 | 55 | 1017.8 |
| 20260507011529 | 67 | 262 | 13.0 | 25.0 | 0.00 | 0.06 | 0.06 | 54 | 1017.7 |
| 20260507004531 | 66 | 262 | 13.0 | 22.0 | 0.00 | 0.06 | 0.06 | 57 | 1017.8 |
| 20260507001532 | 67 | 264 | 14.0 | 26.0 | 0.00 | 0.06 | 0.06 | 55 | 1017.6 |
| 20260507000031 | 67 | 263 | 15.0 | 24.0 | 0.00 | 0.06 | 0.06 | 54 | 1017.5 |
| 20260506234532 | 68 | 258 | 18.0 | 27.0 | 0.00 | 0.06 | 0.06 | 53 | 1017.3 |
| 20260506233031 | 68 | 259 | 18.0 | 29.0 | 0.02 | 0.06 | 0.06 | 53 | 1017.1 |
| 20260506231530 | 69 | 255 | 21.0 | 35.0 | 0.04 | 0.06 | 0.06 | 50 | 1016.8 |
| 20260506230040 | 70 | 253 | 23.0 | 38.0 | 0.04 | 0.06 | 0.06 | 50 | 1016.7 |
| 20260506224531 | 70 | 254 | 26.0 | 37.0 | 0.04 | 0.06 | 0.04 | 50 | 1016.6 |
| 20260506221532 | 71 | 243 | 22.0 | 39.0 | 0.00 | 0.02 | 0.02 | 50 | 1016.6 |
| 20260506220029 | 71 | 238 | 18.0 | 36.0 | 0.00 | 0.02 | 0.02 | 51 | 1016.9 |
| 20260506214533 | 69 | 228 | 16.0 | 31.0 | 0.00 | 0.02 | 0.02 | 51 | 1017.3 |
| 20260506213031 | 69 | 242 | 18.0 | 31.0 | 0.00 | 0.02 | 0.02 | 51 | 1017.3 |
| 20260506211529 | 70 | 244 | 15.0 | 34.0 | 0.00 | 0.02 | 0.02 | 50 | 1017.4 |